Find STARLINK-37453

NORAD ID: 68862 Int'l Des: 2026-094Z Owner: starlink Country: USA Constellation: starlink operational
LEOCIRCULARRETROGRADE

リアルタイム位置

3D地球を読み込み中...

STARLINK-37453について

説明を読み込み中...

次回通過

Passes for default location (London). Set your location on the main map for personalized predictions.

高度履歴

Loading altitude history...

軌道要素

1 68862U 26094Z 26121.91668981 -.01688075 90011-3 -27664-2 0 9999
2 68862 97.2816 135.5375 0001111 68.6439 175.9830 16.03368467 1923
Epoch: May 1, 2026 • Age: 6 hours

現在のステータス

高度 277.5 km
速度 7.74 km/s
衛星直下点 -25.50°S, 34.79°E
タイプ internet

Most Searched